Regional Weather Roundup
Issued by NWS

Home | Current Version | Previous Version | Text Only | Print | Product List | Glossary Off
Versions: 1 2 3 4 5 6 7 8 9 10 11 12 13 14 15 16 17 18 19 20 21 22 23 24 25 26 27 28 29 30 31 32 33 34 35 36 37 38 39 40 41 42 43 44 45 46 47 48 49 50

000
ASUS43 KDMX 280806
RWRIA

WEATHER ROUNDUP FOR IOWA
NATIONAL WEATHER SERVICE DES MOINES IA
300 AM CDT WED JUN 28 2017

NOTE: "FAIR" INDICATES FEW OR NO CLOUDS BELOW 12,000 FEET WITH NO
SIGNIFICANT WEATHER AND/OR OBSTRUCTIONS TO VISIBILITY.

* - THESE STATIONS ARE NOT NWS STATIONS...THUS NOT UNDER NWS
QUALITY CONTROL.  THEY ALSO DO NOT REPORT WEATHER SUCH
AS PRECIPITATION OR FOG.

IAZ001>003-012>014-020>022-031>034-043>046-280900-
   NORTHWEST IOWA

CITY           SKY/WX    TMP DP  RH WIND       PRES   REMARKS
SIOUX CITY     LGT RAIN  69  66  90 SW12      29.68F
SPENCER        RAIN      69  66  90 S20G29    29.64F
STORM LAKE *   CLOUDY    72  64  78 S17G31    29.69R
$$

IAZ055>058-069>071-079>083-090>094-280900-
   SOUTHWEST IOWA

CITY           SKY/WX    TMP DP  RH WIND       PRES   REMARKS
CRESTON *      CLOUDY    72  64  78 S20       29.80S
LAMONI         CLOUDY    72  64  76 S16G22    29.82F
$$

IAZ047>049-059>061-072>074-084-280900-
   CENTRAL IOWA

CITY           SKY/WX    TMP DP  RH WIND       PRES   REMARKS
AMES           CLOUDY    68  62  81 S13       29.75F
ANKENY *       CLOUDY    70  61  73 S8        29.78F
CHARITON *     CLOUDY    72  63  73 S17       29.80F
DES MOINES     CLOUDY    73  63  70 S16G24    29.76F
GRINNELL*      CLOUDY    68  56  64 SE14      29.83F
KNOXVILLE *    CLOUDY    70  59  68 S13       29.79F
MARSHALLTOWN   CLOUDY    69  57  65 S17G28    29.79F
PERRY *          N/A     73  61  67 S20G29    29.74F
$$

IAZ004>006-015-016-023>025-035-036-280900-
   NORTH CENTRAL IOWA

CITY           SKY/WX    TMP DP  RH WIND       PRES   REMARKS
ESTHERVILLE    TSTM      65  65 100 S10       29.69F FOG
FORT DODGE *   CLOUDY    70  61  73 S21G26    29.74R
MASON CITY     LGT RAIN  65  53  65 SE15      29.75F
$$

IAZ007>011-017>019-026>030-037>042-050>054-066-280900-
   NORTHEAST IOWA

CITY           SKY/WX    TMP DP  RH WIND       PRES   REMARKS
CEDAR RAPIDS   CLOUDY    66  54  65 S10       29.87S
CHARLES CITY * CLOUDY    68  52  56 S16G22    29.80F
CLINTON *      CLOUDY    61  52  72 SE10      29.93F
DECORAH *      CLOUDY    63  50  63 S10G17    29.83S
DUBUQUE        MOCLDY    60  49  66 S15       29.90F
WATERLOO       CLOUDY    66  51  58 SE16G24   29.81F
$$

IAZ064-065-067-068-078-280900-
   EAST CENTRAL IOWA

CITY           SKY/WX    TMP DP  RH WIND       PRES   REMARKS
IOWA CITY      CLOUDY    67  53  61 SE9       29.90F
MT. PLEASANT * CLOUDY    68  53  60 S13G21    29.91F
MUSCATINE *    CLOUDY    66  52  59 S7        29.92R
QUAD CITIES    CLOUDY    63  51  65 SE8       29.93R
$$

IAZ062-063-075>077-085>089-095>099-280900-
   SOUTHEAST IOWA

CITY           SKY/WX    TMP DP  RH WIND       PRES   REMARKS
BURLINGTON     CLOUDY    68  55  63 S13G21    29.92S
CENTERVILLE *    N/A     68  63  83 S10G16    29.86F
OTTUMWA        CLOUDY    71  58  63 S16G24    29.84F
$$

ABBREVIATIONS USED IN REMARKS
   TC - TEMPERATURES IN CELSIUS
  WCI - WIND CHILL INDEX
   HX - HEAT INDEX
  VSB - VISIBILITY
$$




USA.gov is the U.S. government's official web portal to all federal, state and local government web resources and services.